Epoch 2007 Sept. 17.0 TT = JDT 2454360.5 T 2007 Sept. 27.28976 TT Rudenko q 1.9213798 (2000.0) P Q n 0.06970824 Peri. 282.87334 +0.92359449 -0.16636169 a 5.8471822 Node 87.50148 +0.30169488 +0.87129326 e 0.6714007 Incl. 20.22592 -0.23654475 +0.46170536 P 14.1 From 99 observations 2007 Aug. 12-2021 Oct. 26, mean residual 0".9.
m1 = 15.0 + 5 logΔ + 10.0 log r